Weather History for Chariton, IA

Change the Weather History Date:

Thursday, March 7, 2013

  Actual Average Record
Temperature  
Mean Temperature 24 °F -  
Max Temperature 33 °F 46 °F 72 °F (1987)
Min Temperature 14 °F 24 °F -2 °F (1962)
Degree Days  
Heating Degree Days 42    
Moisture  
Dew Point 20 °F    
Average Humidity 84    
Maximum Humidity 93    
Minimum Humidity 70    
Precipitation  
Precipitation 0.00 in - - ()
Sea Level Pressure  
Sea Level Pressure 30.31 in    
Wind  
Wind Speed - (North)    
Max Wind Speed -    
Max Gust Speed -    
Visibility 8 miles    
Events      
Averages and records for this station are not official NWS values.
T = Trace of Precipitation, MM = Missing Value Source: NWS Daily Summary

Daily Weather History Graph

Daily Weather History Graph

Search for Another Location

Airport:

Trip Planner

Search our weather history database for the weather conditions in past years. The results will help you decide how hot, cold, wet, or windy it might be!

Date:

Astronomy

Mar. 07, 2013 Rise Set
Actual Time 6:37 AM CST 6:11 PM CST
Civil Twilight 6:10 AM CST 6:39 PM CST
Nautical Twilight 5:38 AM CST 7:10 PM CST
Astronomical Twilight 5:06 AM CST 7:43 PM CST
Moon 3:39 AM CST (3/7) 1:58 PM CST (3/7)
Length of Visible Light 12h 28m
Length of Day
11h 33m
Waning Crescent, 20% of the Moon is Illuminated
Mar 7
Waning Crescent
Mar 11
New
Mar 19
First Quarter
Mar 27
Full
Apr 2
Last Quarter

Hourly Weather History & Observations

Time (CST) Temp. Dew Point Humidity Pressure Visibility Wind Dir Wind Speed Gust Speed Precip Events Conditions
12:15 AM 17.6 °F 15.8 °F 93% 30.34 in 7.0 mi North - - N/A   Clear
12:35 AM 17.6 °F 15.8 °F 93% 30.34 in 7.0 mi North - - N/A   Clear
12:55 AM 17.6 °F 15.8 °F 93% 30.35 in 7.0 mi North - - N/A   Clear
1:15 AM 17.6 °F 14.0 °F 86% 30.35 in 4.0 mi North - - N/A   Clear
1:35 AM 17.6 °F 14.0 °F 86% 30.35 in 3.0 mi North - - N/A   Clear
1:55 AM 15.8 °F 12.2 °F 86% 30.35 in 4.0 mi North - - N/A   Clear
2:15 AM 15.8 °F 12.2 °F 86% 30.35 in 4.0 mi North - - N/A   Clear
2:35 AM 15.8 °F 12.2 °F 86% 30.35 in 5.0 mi North - - N/A   Clear
2:55 AM 15.8 °F 12.2 °F 86% 30.34 in 4.0 mi North - - N/A   Clear
3:15 AM 14.0 °F 12.2 °F 93% 30.32 in 5.0 mi North - - N/A   Clear
3:35 AM 15.8 °F 12.2 °F 86% 30.32 in 5.0 mi North - - N/A   Clear
3:55 AM 15.8 °F 12.2 °F 86% 30.32 in 5.0 mi North - - N/A   Clear
4:15 AM 14.0 °F 12.2 °F 93% 30.32 in 5.0 mi North - - N/A   Clear
4:55 AM 15.8 °F 12.2 °F 86% 30.33 in 4.0 mi North - - N/A   Clear
5:15 AM 15.8 °F 12.2 °F 86% 30.33 in 4.0 mi North - - N/A   Clear
5:35 AM 15.8 °F 12.2 °F 86% 30.33 in 4.0 mi North - - N/A   Clear
5:55 AM 15.8 °F 12.2 °F 86% 30.33 in 4.0 mi North - - N/A   Clear
6:15 AM 14.0 °F 12.2 °F 93% 30.34 in 3.0 mi North - - N/A   Clear
6:35 AM 14.0 °F 12.2 °F 93% 30.34 in 3.0 mi North - - N/A   Clear
6:55 AM 14.0 °F 12.2 °F 93% 30.34 in 2.0 mi North - - N/A   Clear
7:15 AM 14.0 °F 12.2 °F 93% 30.34 in 2.5 mi North - - N/A   Clear
7:35 AM 15.8 °F 12.2 °F 86% 30.35 in 3.0 mi North - - N/A   Clear
7:55 AM 15.8 °F 14.0 °F 93% 30.36 in 4.0 mi North - - N/A   Clear
8:15 AM 17.6 °F 15.8 °F 93% 30.36 in 4.0 mi North - - N/A   Clear
8:35 AM 19.4 °F 17.6 °F 93% 30.36 in 5.0 mi North - - N/A   Clear
8:55 AM 19.4 °F 17.6 °F 93% 30.36 in 7.0 mi North - - N/A   Clear
9:15 AM 21.2 °F 19.4 °F 93% 30.36 in 7.0 mi North - - N/A   Clear
9:35 AM 21.2 °F 19.4 °F 93% 30.35 in 7.0 mi North - - N/A   Clear
9:55 AM 21.2 °F 19.4 °F 93% 30.35 in 7.0 mi North - - N/A   Clear
10:15 AM 23.0 °F 21.2 °F 93% 30.35 in 7.0 mi North - - N/A   Clear
10:35 AM 24.8 °F 21.2 °F 86% 30.35 in 7.0 mi North - - N/A   Clear
10:55 AM 26.6 °F 21.2 °F 80% 30.35 in 10.0 mi North - - N/A   Clear
11:15 AM 26.6 °F 23.0 °F 86% 30.34 in 10.0 mi North - - N/A   Clear
11:35 AM 28.4 °F 23.0 °F 80% 30.34 in 10.0 mi North - - N/A   Clear
11:55 AM 28.4 °F 24.8 °F 86% 30.33 in 10.0 mi North - - N/A   Clear
12:15 PM 30.2 °F 24.8 °F 80% 30.32 in 10.0 mi North - - N/A   Clear
12:35 PM 30.2 °F 24.8 °F 80% 30.31 in 10.0 mi North - - N/A   Clear
12:55 PM 30.2 °F 24.8 °F 80% 30.30 in 10.0 mi North - - N/A   Clear
1:15 PM 30.2 °F 24.8 °F 80% 30.29 in 10.0 mi North - - N/A   Clear
1:35 PM 32.0 °F 26.6 °F 80% 30.28 in 10.0 mi North - - N/A   Clear
1:55 PM 33.8 °F 26.6 °F 75% 30.27 in 10.0 mi North - - N/A   Clear
2:15 PM 33.8 °F 24.8 °F 70% 30.27 in 10.0 mi North - - N/A   Clear
2:35 PM 33.8 °F 24.8 °F 70% 30.26 in 10.0 mi North - - N/A   Clear
2:55 PM 33.8 °F 26.6 °F 75% 30.26 in 10.0 mi North - - N/A   Clear
3:15 PM 33.8 °F 26.6 °F 75% 30.26 in 10.0 mi North - - N/A   Clear
3:35 PM 33.8 °F 26.6 °F 75% 30.26 in 10.0 mi North - - N/A   Clear
3:55 PM 33.8 °F 26.6 °F 75% 30.26 in 10.0 mi North - - N/A   Clear
4:15 PM 33.8 °F 26.6 °F 75% 30.26 in 10.0 mi North - - N/A   Clear
4:35 PM 32.0 °F 26.6 °F 80% 30.25 in 10.0 mi North - - N/A   Clear
4:55 PM 32.0 °F 26.6 °F 80% 30.26 in 10.0 mi North - - N/A   Clear
5:15 PM 32.0 °F 24.8 °F 75% 30.26 in 10.0 mi North - - N/A   Clear
5:35 PM 30.2 °F 26.6 °F 86% 30.26 in 10.0 mi North - - N/A   Clear
5:55 PM 30.2 °F 24.8 °F 80% 30.26 in 10.0 mi North - - N/A   Clear
7:35 PM 28.4 °F 24.8 °F 86% 30.27 in 10.0 mi North - - N/A   Clear
7:55 PM 28.4 °F 24.8 °F 86% 30.27 in 10.0 mi North - - N/A   Clear
8:15 PM 28.4 °F 23.0 °F 80% 30.27 in 10.0 mi North - - N/A   Clear
8:35 PM 28.4 °F 23.0 °F 80% 30.27 in 10.0 mi North - - N/A   Clear
8:55 PM 28.4 °F 23.0 °F 80% 30.27 in 10.0 mi North - - N/A   Clear
9:15 PM 28.4 °F 23.0 °F 80% 30.28 in 10.0 mi North - - N/A   Clear
9:35 PM 28.4 °F 23.0 °F 80% 30.29 in 10.0 mi North - - N/A   Clear
9:55 PM 26.6 °F 23.0 °F 86% 30.29 in 10.0 mi North - - N/A   Clear
10:15 PM 26.6 °F 23.0 °F 86% 30.29 in 10.0 mi North - - N/A   Clear
10:35 PM 26.6 °F 23.0 °F 86% 30.29 in 10.0 mi North - - N/A   Clear
10:55 PM 26.6 °F 21.2 °F 80% 30.29 in 10.0 mi North - - N/A   Clear
11:15 PM 26.6 °F 21.2 °F 80% 30.28 in 10.0 mi North - - N/A   Clear
11:35 PM 26.6 °F 21.2 °F 80% 30.28 in 10.0 mi North - - N/A   Clear
11:55 PM 26.6 °F 21.2 °F 80% 30.28 in 10.0 mi North - - N/A   Clear